Theta_e
306 306 307 307 307 307 307 307 307 308 308 308 308 308 308 309 311 314 318 317 320 321 321 327 326 325 323 321 323 318 323 325 324 315 315 313 314 313 315 315 316 315 314 313 313
306 306 306 306 307 307 307 307 307 307 308 308 308 308 308 308 311 316 316 317 319 321 322 324 321 320 319 320 321 321 322 324 320 313 315 313 313 314 317 317 315 314 313 312 313
305 306 306 306 306 307 307 307 307 307 307 308 308 308 308 308 319 318 317 317 317 320 321 323 321 320 321 320 320 320 324 321 319 314 313 313 313 314 316 317 314 313 313 312 313
303 304 305 305 306 306 306 307 306 307 307 307 308 308 308 310 314 320 321 321 320 319 322 321 319 320 319 319 320 323 321 319 319 317 312 313 313 317 316 315 315 312 312 312 312
302 303 304 305 306 306 306 306 306 306 306 307 307 308 309 317 315 316 319 317 322 320 322 319 319 319 320 319 320 321 319 317 316 312 314 313 315 317 316 316 314 311 312 312 311
303 301 302 302 303 304 305 305 305 306 306 306 307 308 311 312 311 313 314 317 321 322 322 320 320 318 319 320 321 320 317 317 314 314 314 315 316 317 316 315 313 312 312 312 312
304 303 303 301 300 300 302 304 305 306 306 306 307 309 316 309 311 319 322 322 321 322 320 322 321 320 320 321 319 317 319 317 317 314 315 314 315 316 316 314 313 312 312 312 312
305 305 303 301 300 298 299 303 305 306 307 308 308 315 311 311 312 311 313 315 315 323 322 322 322 320 321 319 318 318 316 317 317 315 315 314 315 315 314 314 313 312 312 312 312
306 305 304 302 301 300 298 301 305 307 312 313 316 316 311 313 317 312 312 315 317 321 322 321 319 318 318 318 318 316 320 318 318 314 315 314 316 315 314 315 314 312 313 312 312
306 305 304 303 302 301 299 302 306 314 316 314 318 314 308 310 315 319 315 317 320 319 320 320 316 317 314 316 320 320 319 318 318 317 315 314 314 314 316 315 315 312 313 313 313
306 306 305 304 303 302 301 303 308 315 318 313 310 310 313 315 315 318 320 321 320 319 319 318 318 318 317 317 318 319 319 319 320 318 316 315 315 316 315 314 314 312 312 312 313
305 305 305 304 303 302 300 303 305 305 309 311 311 314 315 314 315 315 321 320 320 320 318 319 320 318 318 318 318 317 318 318 317 317 315 317 316 314 315 315 314 312 312 312 313
306 305 304 304 303 302 302 306 305 306 310 314 313 314 314 315 315 316 319 320 320 319 319 320 321 319 319 319 320 319 319 318 318 317 315 315 315 315 315 315 315 312 312 312 312
309 307 304 303 303 301 301 303 305 306 315 315 316 315 314 315 316 315 319 321 321 321 319 319 319 320 320 321 319 320 318 319 319 318 318 315 317 315 316 316 317 312 311 312 311
307 309 304 303 303 302 301 301 304 307 308 311 316 316 313 315 315 316 317 319 320 321 320 323 319 320 320 320 318 320 319 318 318 317 316 317 315 316 319 320 317 315 311 311 310
305 308 305 303 302 303 302 301 307 316 318 313 315 316 315 315 315 315 317 319 318 319 319 321 318 319 320 319 318 319 318 315 315 314 316 315 316 316 317 319 318 317 312 311 310
303 307 307 304 301 302 302 305 315 317 312 313 314 315 316 316 315 316 317 318 319 320 321 320 319 319 319 320 316 316 314 317 317 318 320 317 318 317 318 317 318 319 313 311 311
302 304 308 304 303 303 302 309 317 314 313 313 312 315 316 315 316 315 315 318 316 318 320 321 323 319 318 319 319 314 314 316 318 316 315 319 322 320 319 321 320 318 314 311 311
303 304 307 305 303 303 302 312 312 313 313 313 313 315 316 316 316 316 315 316 317 317 321 321 321 319 318 318 318 317 315 314 315 317 319 319 321 323 325 324 320 315 313 312 311
304 304 306 305 304 302 302 307 312 313 312 312 313 313 315 315 316 316 315 315 315 317 318 319 321 319 319 317 316 317 315 317 313 319 320 319 323 325 322 325 323 318 313 312 311
304 305 306 305 303 303 303 303 306 313 313 312 312 313 314 314 315 315 316 316 316 317 318 316 319 320 319 320 318 318 319 319 314 315 317 318 322 320 325 327 327 321 314 312 312
304 305 304 303 305 305 305 304 306 308 313 313 312 311 312 313 314 315 317 316 316 317 317 316 317 320 324 322 322 318 318 320 319 319 320 319 321 321 326 328 328 324 314 312 312
304 305 302 304 308 306 304 305 304 305 311 312 313 313 312 314 315 315 316 315 314 317 315 315 315 317 317 327 327 327 326 321 321 321 327 327 322 322 327 326 325 323 314 312 312
298 304 303 303 304 304 305 305 304 304 305 309 311 312 312 313 313 314 317 316 315 317 323 318 314 317 321 319 327 329 331 326 323 325 325 328 326 326 327 329 326 320 314 312 312
298 302 304 305 306 304 302 302 305 304 306 308 311 312 312 312 312 312 313 313 314 317 319 315 316 317 317 317 323 322 326 328 325 323 325 324 328 325 324 327 327 318 313 312 312
300 303 303 302 305 306 305 305 304 304 303 306 309 311 311 312 311 313 312 313 313 309 314 316 318 316 318 318 318 320 322 328 326 324 327 324 326 324 325 327 328 321 315 314 314
297 300 304 303 307 307 306 306 306 305 306 305 307 307 307 308 308 307 306 308 309 310 308 315 321 320 319 324 323 324 321 327 327 325 324 327 324 324 328 328 327 325 316 315 315
Wind_Speed
15 16 17 17 16 16 17 18 19 20 20 20 20 19 19 19 19 18 9 17 16 23 18 5 10 11 7 4 5 3 3 3 5 3 7 1 3 1 1 5 1 0 4 3 16
15 16 16 17 17 16 18 19 19 19 19 20 20 19 18 18 18 23 24 24 23 17 10 14 6 10 2 4 3 4 3 7 6 6 6 4 5 7 3 3 1 2 5 11 11
18 18 18 19 17 18 20 21 21 21 19 19 19 18 16 13 4 9 16 21 29 21 17 8 9 6 3 3 4 6 5 7 8 8 7 5 2 4 6 4 7 9 8 6 8
19 19 20 21 20 21 21 21 23 23 21 19 19 18 15 2 6 2 7 15 20 27 17 8 4 4 3 5 5 3 9 6 8 7 7 6 6 5 5 7 4 8 9 7 7
20 20 21 22 23 23 24 24 24 25 24 21 20 17 6 1 10 20 20 20 6 24 22 7 6 4 4 5 5 5 5 1 4 7 4 6 5 4 8 4 6 9 7 9 7
22 22 22 22 22 24 24 24 26 25 25 24 22 15 2 7 16 21 25 19 9 22 11 11 8 10 4 6 6 7 4 2 2 1 2 5 1 3 6 6 7 9 9 7 7
23 22 22 22 24 26 26 26 26 26 26 25 23 6 4 18 11 8 2 6 11 20 6 19 11 7 4 5 1 3 3 5 1 4 3 4 3 9 4 7 9 9 6 7 7
23 23 23 24 25 26 28 27 26 27 29 23 13 8 8 11 15 28 27 29 20 14 19 3 12 3 2 2 4 4 5 3 4 4 3 6 10 6 9 11 11 8 7 7 6
22 23 24 25 26 27 27 27 24 25 15 4 7 5 9 5 9 24 26 11 7 11 9 5 8 5 1 3 3 7 3 4 6 7 2 5 9 3 7 11 9 8 7 7 6
23 22 24 25 26 28 28 26 19 1 4 6 1 1 8 5 7 6 16 16 4 6 4 4 3 3 2 3 5 4 3 3 4 3 4 3 13 6 6 10 9 8 8 7 7
24 23 23 22 22 23 25 9 3 2 4 8 4 5 6 7 4 3 8 12 5 5 7 5 4 8 9 6 5 4 3 5 4 5 5 7 10 16 6 6 8 9 9 8 8
23 21 21 21 21 23 11 1 5 4 8 10 16 13 29 7 5 5 16 7 6 6 7 4 12 7 7 4 4 3 3 5 6 3 6 8 10 9 7 9 11 13 9 9 6
25 23 22 21 23 8 3 3 10 8 4 7 9 10 9 12 9 8 7 5 6 7 7 8 4 7 7 5 4 5 3 5 7 1 3 1 7 5 5 3 4 6 7 6 10
26 22 18 19 10 10 1 6 9 3 4 7 7 9 10 11 6 11 13 6 2 13 9 7 5 8 5 5 7 4 8 6 4 2 4 4 5 6 5 6 7 8 10 11 9
23 21 14 8 13 6 7 16 15 4 5 6 6 1 8 14 10 8 10 3 10 7 7 10 8 6 5 9 7 10 4 6 3 4 2 2 2 7 2 7 10 12 12 11 11
22 21 13 6 8 11 15 16 1 4 11 5 6 8 7 6 7 7 7 4 6 7 2 10 5 10 12 8 9 3 3 6 4 4 1 7 7 5 5 8 7 4 11 12 12
23 21 18 12 3 5 17 3 3 7 2 7 7 7 11 6 8 9 13 12 11 8 10 4 5 4 5 5 3 5 6 4 4 3 5 3 3 8 9 9 9 8 13 14 12
25 21 21 19 13 9 6 3 9 9 11 3 5 6 9 8 10 9 8 14 12 7 6 9 9 10 4 8 10 7 9 5 6 3 5 3 5 6 6 5 8 6 10 13 12
26 23 18 21 16 7 2 7 13 7 14 3 3 5 5 7 7 9 17 15 12 12 17 8 8 3 7 5 11 5 4 6 4 1 2 3 7 10 3 5 5 7 11 14 13
24 13 19 21 20 11 2 25 8 7 6 23 8 6 10 7 9 16 14 16 12 9 7 7 3 6 7 5 1 9 7 2 2 2 4 4 4 6 8 5 4 6 8 11 9
12 4 11 27 25 5 9 15 22 7 3 15 21 6 7 8 9 8 7 9 21 9 11 6 6 4 6 7 9 3 3 5 4 4 5 3 6 6 4 9 8 9 10 13 15
7 5 23 37 7 5 16 10 8 24 3 3 2 8 8 7 9 11 12 13 12 15 13 8 7 6 8 2 5 7 10 9 5 5 3 4 7 5 6 9 6 6 8 7 9
2 2 15 28 10 12 15 12 13 13 13 3 3 3 5 7 4 5 5 5 9 17 11 8 3 3 5 3 1 4 5 5 5 4 7 5 6 4 4 3 3 7 9 8 9
3 5 3 5 4 15 17 17 9 17 14 1 3 4 1 5 3 4 2 3 2 4 9 13 6 10 16 6 6 5 5 6 7 5 5 6 4 5 3 4 1 5 8 9 9
3 2 2 5 7 11 7 3 21 8 12 3 3 4 3 5 4 4 2 3 4 3 4 6 8 6 5 10 11 14 9 12 10 9 8 8 9 8 5 5 4 8 8 10 10
3 2 3 2 12 16 8 4 18 20 5 17 5 4 2 3 4 3 3 3 2 7 4 2 4 8 7 10 13 11 17 16 17 3 1 6 5 7 5 5 4 8 12 14 15
1 1 3 1 5 9 13 14 4 3 1 6 5 3 3 3 5 6 6 4 3 1 2 1 4 4 5 5 6 17 16 14 10 5 10 8 10 7 6 8 8 7 12 14 15
Wind_Direction
328 329 344 342 342 339 332 331 331 334 337 336 333 327 326 318 306 288 218 238 242 257 264 178 167 152 135 145 149 131 74 216 247 201 249 242 165 277 9 129 91 302 146 150 138
325 333 336 332 331 327 327 327 330 332 334 331 331 324 326 323 314 277 263 255 242 246 250 181 154 137 116 174 158 120 135 223 200 198 236 215 190 174 170 141 80 69 70 121 130
325 324 326 323 322 325 322 325 324 323 326 328 325 323 324 330 336 259 276 254 243 234 242 189 120 118 158 172 195 184 201 209 230 213 187 196 232 174 134 252 210 194 164 130 127
324 321 316 319 321 321 319 319 317 319 322 323 320 319 320 333 247 230 75 7 232 221 210 155 112 146 194 216 194 175 238 188 252 186 147 188 134 196 201 229 219 165 146 139 153
314 315 313 316 316 316 316 315 314 315 315 318 314 315 325 334 245 247 276 312 313 206 198 156 156 140 221 223 157 192 259 190 242 156 173 122 198 193 237 332 111 123 141 154 162
314 312 312 310 308 306 306 307 309 311 312 314 311 310 160 252 263 270 270 275 256 201 183 151 188 193 243 218 171 209 202 56 55 168 179 154 185 141 238 138 132 147 173 167 164
316 315 315 313 311 310 305 302 306 309 308 306 302 267 231 234 239 265 179 224 235 210 178 204 157 165 176 276 230 93 105 36 262 149 246 114 298 235 190 159 161 178 165 165 194
317 317 317 318 316 313 310 304 305 306 305 299 282 171 243 259 255 255 246 266 273 233 217 161 195 228 173 225 39 88 53 96 279 154 256 141 263 266 183 166 189 176 171 176 196
314 316 320 322 322 320 312 305 304 304 306 255 139 174 262 286 239 254 237 214 199 220 203 118 132 187 34 193 38 14 220 209 310 204 135 176 265 277 173 183 185 174 177 181 197
311 315 319 320 321 322 317 312 306 183 104 144 133 290 270 237 248 237 215 205 153 122 102 127 79 169 68 105 210 233 226 228 242 241 186 223 265 257 200 199 193 174 175 186 196
302 306 308 312 317 324 327 332 2 205 214 202 202 238 288 341 265 224 175 142 121 108 157 162 142 203 202 199 183 195 196 247 266 242 178 235 252 273 206 208 188 186 181 190 202
295 304 302 308 316 317 307 269 62 297 296 238 247 251 266 313 317 307 163 131 148 164 113 83 219 188 197 164 173 160 222 264 274 278 163 271 271 263 187 224 204 190 185 188 188
285 295 306 312 317 317 293 105 340 357 257 264 203 215 222 156 221 252 190 144 138 149 165 185 182 162 169 196 174 198 173 233 239 320 239 151 307 301 269 242 179 185 179 167 187
284 285 299 313 299 329 221 341 341 330 292 270 204 249 173 144 236 212 183 150 137 188 168 207 193 172 168 196 166 254 217 229 267 47 271 133 271 286 284 278 228 195 184 182 184
279 277 286 307 311 302 318 327 334 145 288 246 203 214 175 170 157 214 173 86 162 172 141 213 155 175 173 211 163 232 144 196 227 205 109 270 73 262 352 284 259 215 194 184 180
275 273 262 261 268 272 318 316 175 74 243 269 192 175 119 199 189 147 155 129 155 154 238 202 191 165 197 213 175 166 107 49 55 97 60 235 160 278 221 217 260 180 187 185 174
275 258 238 215 226 276 329 329 127 206 216 216 202 161 176 160 193 161 167 178 180 159 199 168 186 191 144 152 89 96 71 338 338 6 223 108 101 235 255 244 231 229 190 174 170
272 261 227 217 240 269 324 82 218 217 202 289 165 145 179 151 208 184 154 186 209 156 161 180 227 170 178 170 183 181 155 158 230 231 260 138 230 250 229 308 283 222 176 157 164
270 258 222 199 214 221 112 198 223 172 195 230 105 135 201 191 158 172 212 203 185 184 202 174 227 138 166 156 148 177 153 197 138 154 61 243 287 311 268 7 19 106 141 169 168
254 240 241 188 187 160 125 225 219 186 146 202 198 168 186 185 173 191 181 210 205 172 141 194 182 207 200 94 18 166 161 112 18 194 228 277 286 240 300 304 174 163 180 174 162
238 232 193 182 154 173 210 225 222 308 330 185 218 193 215 178 181 194 226 218 192 169 173 134 135 269 110 178 169 124 162 58 124 148 187 235 257 218 224 251 233 195 192 183 177
238 216 161 155 187 196 228 215 319 228 272 287 218 198 196 185 184 200 205 199 180 164 173 185 152 193 199 198 172 208 189 171 163 229 208 185 261 242 262 272 209 168 189 179 196
228 195 182 180 198 214 234 258 254 251 242 307 279 216 195 193 197 177 168 219 158 179 159 170 199 150 328 5 329 168 178 148 120 95 189 186 262 177 255 269 202 173 170 169 174
132 191 158 229 237 212 223 234 261 239 278 98 313 310 141 168 218 153 151 69 62 127 159 155 158 189 221 209 159 183 179 183 156 141 185 217 210 261 185 58 287 152 164 167 181
132 235 306 175 203 222 183 272 216 244 218 130 223 248 207 176 101 126 191 10 91 261 109 142 205 182 198 203 191 212 196 180 191 195 175 215 207 229 180 180 209 172 148 159 169
173 175 157 280 213 221 221 207 235 215 247 227 244 190 3 61 53 101 66 79 72 16 90 7 222 175 217 207 195 215 217 194 208 152 107 155 231 206 173 163 223 163 166 182 188
215 296 312 70 226 208 215 214 242 229 294 207 146 240 46 225 263 241 211 260 242 18 359 336 136 103 227 182 127 245 208 193 204 190 171 198 214 155 179 195 215 209 182 194 193